Location: Dehesa de la Cepeda
(40.6574°N, 4.3013°W)
Time: 10:36:22
(UTC+00:00)

Transit 2A Rocket - Pass Details

Date: 08 August 2021
Orbit: 586 x 917 km, 66.7° (Epoch: 24 September)

Event Time Altitude Azimuth Distance (km) Brightness Sun altitude
Rises 13:56:58 0° 256° (WSW) 2,885 8.4 58.0°
Reaches altitude 10° 13:59:55 10° 277° (W) 2,030 7.7 57.6°
Maximum altitude 14:02:51 17° 317° (NW) 1,685 7.0 57.2°
Drops below altitude 10° 14:05:58 10° 358° (N) 2,156 7.2 56.7°
Sets 14:09:15 0° 18° (NNE) 3,153 7.9 56.2°
